DW8761 Weather Reports


Display with metric or nautical units.
time (UTC)temp
F
wind
direction
speed
MPH
gust
MPH
rain 1hr
in
rain 24hr
in
rain mn
in
humidity
%
barometer
mb
20170924140743 47 136 1.0 4.0 0.00 0.01 0.01 97 1021.1
20170924135230 47 163 3.0 6.0 0.01 0.01 0.01 97 1020.9
20170924133715 47 140 2.0 5.0 0.01 0.01 0.01 97 1020.7
20170924132210 47 157 2.0 6.0 0.01 0.01 0.01 97 1020.8
20170924130648 47 144 2.0 7.0 0.01 0.01 0.01 97 1020.8
20170924125125 47 150 1.0 5.0 0.00 0.00 0.00 97 1020.8
20170924123618 47 148 0.0 2.0 0.00 0.00 0.00 97 1020.7
20170924122104 47 148 1.0 3.0 0.00 0.00 0.00 97 1020.8
20170924120533 47 150 1.0 3.0 0.00 0.00 0.00 97 1021.0
20170924115009 47 143 2.0 3.0 0.00 0.00 0.00 97 1020.8
20170924113500 47 110 0.0 0.0 0.00 0.00 0.00 96 1020.4
20170924111943 48 109 0.0 0.0 0.00 0.00 0.00 96 1020.4
20170924110427 48 109 0.0 0.0 0.00 0.00 0.00 96 1020.5
20170924104916 48 109 0.0 1.0 0.00 0.00 0.00 96 1020.4
20170924103359 48 106 0.0 0.0 0.00 0.00 0.00 96 1020.4
20170924101846 48 106 0.0 0.0 0.00 0.00 0.00 96 1020.5
20170924100332 48 106 0.0 0.0 0.00 0.00 0.00 97 1020.4
20170924094815 48 106 0.0 0.0 0.00 0.00 0.00 96 1020.4
20170924093317 48 106 0.0 0.0 0.00 0.00 0.00 96 1020.4
20170924091748 48 106 0.0 0.0 0.00 0.00 0.00 96 1020.4
20170924090256 49 106 0.0 0.0 0.00 0.00 0.00 95 1020.5
20170924084721 49 106 0.0 0.0 0.00 0.00 0.00 95 1020.5
20170924083208 50 106 0.0 0.0 0.00 0.00 0.00 96 1020.4
20170924081654 50 106 0.0 0.0 0.00 0.00 0.00 95 1020.4
20170924080131 50 106 0.0 0.0 0.00 0.00 0.00 96 1020.1
20170924074614 51 106 0.0 0.0 0.00 0.00 0.00 96 1020.0
20170924073105 51 105 0.0 0.0 0.00 0.00 0.00 96 1020.0
20170924071543 50 105 0.0 0.0 0.00 0.00 0.00 96 1019.9
20170924065954 49 105 0.0 0.0 0.00 0.00 0.00 95 1019.9
20170924064447 50 105 0.0 0.0 0.00 0.00 0.00 95 1020.0
20170924062934 50 105 0.0 0.0 0.00 0.00 0.00 95 1019.9
20170924061432 50 105 0.0 0.0 0.00 0.00 0.00 95 1019.8
20170924055915 50 105 0.0 0.0 0.00 0.00 0.00 95 1019.8
20170924054412 51 105 0.0 0.0 0.00 0.00 0.00 95 1019.7
20170924052849 51 105 0.0 0.0 0.00 0.00 0.00 94 1019.6
20170924051332 52 105 0.0 0.0 0.00 0.00 0.00 94 1019.7
20170924045822 52 105 0.0 0.0 0.00 0.00 0.00 94 1019.6
20170924044315 53 105 0.0 0.0 0.00 0.00 0.00 94 1019.5
20170924042800 53 105 0.0 0.0 0.00 0.00 0.00 94 1019.5
20170924041245 54 46 0.0 0.0 0.00 0.00 0.00 94 1019.4
20170924035735 55 46 0.0 0.0 0.00 0.00 0.00 94 1019.7
20170924034222 55 46 0.0 0.0 0.00 0.00 0.00 94 1019.5
20170924032820 56 44 0.0 3.0 0.00 0.00 0.00 93 1019.5
20170924031627 56 45 0.0 3.0 0.00 0.00 0.00 94 1019.5
20170924025637 57 22 0.0 4.0 0.00 0.00 0.00 94 1019.5
20170924024125 57 18 0.0 3.0 0.00 0.00 0.00 93 1019.4
20170924022615 57 17 0.0 3.0 0.00 0.00 0.00 93 1019.3
20170924021102 58 17 0.0 0.0 0.00 0.00 0.00 93 1019.5
20170924015524 58 17 0.0 3.0 0.00 0.00 0.00 92 1019.5
20170924014020 59 355 0.0 3.0 0.00 0.00 0.00 92 1019.5
20170924012456 59 19 0.0 5.0 0.00 0.00 0.00 92 1019.4
20170924010943 60 306 0.0 3.0 0.00 0.00 0.00 92 1019.5
20170924005429 60 327 0.0 4.0 0.00 0.00 0.00 91 1019.4
20170924003940 60 322 1.0 5.0 0.00 0.00 0.00 91 1019.5
20170924002412 60 329 0.0 5.0 0.00 0.00 0.00 89 1019.7
20170924000904 61 333 1.0 4.0 0.00 0.00 0.00 88 1019.5
20170923235348 62 331 0.0 3.0 0.00 0.00 0.00 89 1019.6
20170923233828 62 329 2.0 5.0 0.00 0.00 0.00 89 1019.6
20170923232314 61 299 0.0 4.0 0.00 0.00 0.00 89 1019.7
20170923230801 61 311 0.0 4.0 0.00 0.00 0.00 90 1019.9
20170923225246 61 290 0.0 4.0 0.00 0.00 0.00 89 1019.9
20170923223731 61 336 1.0 4.0 0.00 0.00 0.00 88 1019.9
20170923222215 61 256 1.0 4.0 0.00 0.00 0.00 89 1019.9
20170923220708 61 267 3.0 7.0 0.00 0.00 0.00 89 1020.0
20170923215201 61 271 2.0 6.0 0.00 0.00 0.00 89 1020.0
20170923213632 61 287 2.0 6.0 0.00 0.00 0.00 90 1019.8
20170923212125 60 291 3.0 9.0 0.00 0.00 0.00 90 1019.9
20170923210613 60 300 4.0 8.0 0.00 0.00 0.00 89 1019.9
20170923205059 61 290 1.0 4.0 0.00 0.00 0.00 90 1020.0
20170923203523 60 271 2.0 5.0 0.00 0.00 0.00 90 1020.1
20170923202019 61 295 2.0 5.0 0.00 0.00 0.00 90 1020.0
20170923200454 61 294 2.0 6.0 0.00 0.00 0.00 90 1020.1
20170923194932 61 236 1.0 4.0 0.00 0.00 0.00 91 1020.1
20170923193420 60 269 0.0 6.0 0.00 0.00 0.00 91 1020.0
20170923191922 60 281 2.0 4.0 0.00 0.00 0.00 90 1020.1
20170923190351 60 263 0.0 4.0 0.00 0.00 0.00 91 1020.3
20170923143923 50 144 1.0 5.0 0.00 0.00 0.00 97 1019.4
20170923142403 50 119 2.0 7.0 0.00 0.00 0.00 97 1019.4